Estación de Sagrada Familia
Ultimos registro cada 15 minutos 23
| N° | Estación | Fecha / Hora | Temperatura | Humedad | Lluvia | Velocidad | Dirección | Radiación | Presion |
| 23 | Sagrada Familia | 08-05-2026 05:30 | 2,9 | 93 | 0 | 0 | 150 | 0 | 1022,7 |
| 22 | Sagrada Familia | 08-05-2026 05:15 | 2,9 | 92 | 0 | 0 | 163 | 0 | 1022,7 |
| 21 | Sagrada Familia | 08-05-2026 05:00 | 3,1 | 92 | 0 | 0 | 159 | 0 | 1022,5 |
| 20 | Sagrada Familia | 08-05-2026 04:45 | 3,3 | 92 | 0 | 0 | 159 | 0 | 1022,4 |
| 19 | Sagrada Familia | 08-05-2026 04:30 | 3,5 | 92 | 0 | 0 | 159 | 0 | 1022,7 |
| 18 | Sagrada Familia | 08-05-2026 04:15 | 3,6 | 92 | 0 | 0 | 159 | 0 | 1022,8 |
| 17 | Sagrada Familia | 08-05-2026 04:00 | 3,7 | 91 | 0 | 0 | 159 | 0 | 1022,9 |
| 16 | Sagrada Familia | 08-05-2026 03:45 | 3,8 | 91 | 0 | 0 | 173 | 0 | 1023,1 |
| 15 | Sagrada Familia | 08-05-2026 03:30 | 3,8 | 90 | 0 | 0 | 196 | 0 | 1023,5 |
| 14 | Sagrada Familia | 08-05-2026 03:15 | 3,9 | 89 | 0 | 0 | 196 | 0 | 1023,8 |
| 13 | Sagrada Familia | 08-05-2026 03:00 | 4,3 | 88 | 0 | 0 | 196 | 0 | 1023,6 |
| 12 | Sagrada Familia | 08-05-2026 02:45 | 4,7 | 88 | 0 | 0 | 196 | 0 | 1023,7 |
| 11 | Sagrada Familia | 08-05-2026 02:30 | 4,9 | 88 | 0 | 0 | 196 | 0 | 1023,6 |
| 10 | Sagrada Familia | 08-05-2026 02:15 | 5,3 | 86 | 0 | 0 | 196 | 0 | 1023,9 |
| 9 | Sagrada Familia | 08-05-2026 02:00 | 5,7 | 86 | 0 | 0 | 196 | 0 | 1024 |
| 8 | Sagrada Familia | 08-05-2026 01:45 | 6,2 | 85 | 0 | 0 | 196 | 0 | 1023,9 |
| 7 | Sagrada Familia | 08-05-2026 01:30 | 6,8 | 83 | 0 | 0 | 196 | 0 | 1024,1 |
| 6 | Sagrada Familia | 08-05-2026 01:15 | 7,5 | 82 | 0 | 0 | 196 | 0 | 1024,2 |
| 5 | Sagrada Familia | 08-05-2026 01:00 | 8,3 | 80 | 0 | 0 | 196 | 0 | 1024,4 |
| 4 | Sagrada Familia | 08-05-2026 00:45 | 8,7 | 78 | 0 | 0,4 | 196 | 0 | 1024,7 |
| 3 | Sagrada Familia | 08-05-2026 00:30 | 8,6 | 78 | 0 | 0 | 332 | 0 | 1024,5 |
| 2 | Sagrada Familia | 08-05-2026 00:15 | 9,5 | 75 | 0 | 0 | 314 | 0 | 1024,5 |
| 1 | Sagrada Familia | 08-05-2026 00:00 | 9,8 | 74 | 0 | 0,4 | 292 | 0 | 1024,7 |